Weather Service Report


530 
ASUS45 KPSR 222010
RWRAZ 

ARIZONA HOURLY REGIONAL WEATHER ROUNDUP
NATIONAL WEATHER SERVICE PHOENIX AZ
100 PM MST FRI MAY 22 2015

NOTE: FAIR INDICATES FEW OR NO CLOUDS BELOW 12,000 FEET WITH NO
SIGNIFICANT WEATHER AND/OR OBSTRUCTIONS TO VISIBILITY.

AZZ001>003-036-222100-
NORTHWEST ARIZONA
  
CITY           SKY/WX    TMP DP  RH WIND       PRES   REMARKS
BULLHEAD CITY  PTSUNNY   77  39  25 S14G22    29.82F                  
KINGMAN        LGT RAIN  58  40  51 SW20G26   29.89F                  
$$

AZZ004>008-015-016-018-222100-
NORTH CENTRAL ARIZONA
  
CITY           SKY/WX    TMP DP  RH WIND       PRES   REMARKS
WILLIAMS       DRIZZLE   43  37  81 W14       30.05S                  
PRESCOTT       PTSUNNY   59  33  37 S12G22    29.94F                  
FLAGSTAFF      MOSUNNY   54  23  30 S21G32    29.99F                  
PAYSON         MOSUNNY   64  27  24 S14G26    29.99F                  
$$

AZZ009>014-017-222100-
NORTHEAST ARIZONA
  
CITY           SKY/WX    TMP DP  RH WIND       PRES   REMARKS
WINSLOW        SUNNY     73  20  13 S25G31    29.92F                  
SAINT JOHNS    PTSUNNY   70  18  13 S9G25     29.92F                  
WINDOW ROCK    PTSUNNY   66  21  18 S16G32    29.99F                  
SHOW LOW       MOSUNNY   64  18  16 SW26G38   29.99F                  
$$

AZZ023-222100-
GREATER PHOENIX AREA
  
CITY           SKY/WX    TMP DP  RH WIND       PRES   REMARKS
PHOENIX        MOSUNNY   81  37  20 S16       29.86F                  
BUCKEYE        SUNNY     75  37  25 SW14G23   29.89F                  
GLENDALE       MOSUNNY   77  41  27 S12G26    29.89F                  
LUKE AFB       MOSUNNY   77  41  27 SW17      29.87F                  
DEER VALLEY    MOSUNNY   76  39  26 SW14G23   29.87F                  
SCOTTSDALE     SUNNY     78  31  17 SW15G21   29.89F                  
MESA-FALCON    MOSUNNY  N/A N/A N/A SW12      29.87F                  
MESA-GATEWAY   MOSUNNY   75  39  27 SW15      29.90F                  
CHANDLER       MOSUNNY   77  39  25 SW17      29.88F                  
$$

AZZ027-028-222100-
SOUTHWEST MARICOPA COUNTY AND PINAL COUNTY
  
CITY           SKY/WX    TMP DP  RH WIND       PRES   REMARKS
CASA GRANDE    SUNNY     79  37  22 SW17G28   29.87F                  
GILA BEND      FAIR      77  39  25 SW14G21   29.89F                  
$$

AZZ503-504-507>509-222100-
SOUTHEAST ARIZONA
  
CITY           SKY/WX    TMP DP  RH WIND       PRES   REMARKS
TUCSON         SUNNY     82  21  10 SW25G37   29.92F                  
DAVIS-MONTHAN  SUNNY     81  23  12 SW22G29   29.89F                  
RYAN FIELD       N/A     82  27  13 SW21G32   29.92F                  
NOGALES        MOSUNNY   77  27  15 S22G29    29.98F                  
SIERRA VISTA   MOSUNNY   74  19  12 SW22G29   29.99F                  
DOUGLAS        MOSUNNY   80  15   8 S17G32    29.97F                  
SAFFORD        SUNNY     83  16   8 S13G22    29.86F                  
$$

AZZ020-021-025-026-031-222100-
SOUTHWEST ARIZONA
  
CITY           SKY/WX    TMP DP  RH WIND       PRES   REMARKS
YUMA           SUNNY     79  40  24 W18G25    29.91F                  
$$

CAZ031-033-041-043-047-048-061-222100-
SOUTHERN CALIFORNIA
  
CITY           SKY/WX    TMP DP  RH WIND       PRES   REMARKS
DOWNTOWN L.A.  PTSUNNY   68  50  52 VRB6      30.02S                  
L.A. AIRPORT   PTSUNNY   62  51  67 W14       30.04S                  
SAN DIEGO      PTSUNNY   66  49  54 SW12G20   30.07S                  
BURBANK        CLOUDY    64  46  52 S8G17     30.01S                  
ONTARIO        CLOUDY    62  45  53 VRB6      30.02F                  
RIVERSIDE      CLOUDY    62  47  57 W10       30.03S                  
PALM SPRINGS   MOSUNNY   78  40  25 NW15G26   29.90F                  
EL CENTRO NAS  MOSUNNY   78  40  25 SW28      29.93F                  
IMPERIAL       PTSUNNY   76  40  27 W13G26    29.90F                  
BLYTHE         SUNNY     79  39  23 SW12      29.86F                  
NEEDLES        PTSUNNY   80  35  19 SW13G20   29.83F                  
$$

NVZ020-UTZ003-222100-
SOUTHERN NEVADA-UTAH
  
CITY           SKY/WX    TMP DP  RH WIND       PRES   REMARKS
LAS VEGAS      LGT RAIN  68  56  65 W22G29    29.79F                  
SALT LAKE CITY CLOUDY    64  41  42 W9        29.88F                  
$$

NMZ009-TXZ055-222100-
NEW MEXICO-WEST TEXAS
  
CITY           SKY/WX    TMP DP  RH WIND       PRES   REMARKS
ALBUQUERQUE    MOSUNNY   70  40  33 S13       30.03F                  
EL PASO        MOSUNNY   82  41  23 S8        29.98F                  
$$


........................KEY........................
SKY/WX - SKY CONDITION/WEATHER
TMP    - TEMPERATURE IN FAHRENHEIT
DP     - DEW POINT IN FAHRENHEIT
RH     - RELATIVE HUMIDITY IN PERCENT
WIND   - DIRECTION AND SPEED IN MILES PER HOUR (MPH)
VRB    - VARIABLE WIND DIRECTION
PRES   - MEAN SEA LEVEL PRESSURE IN INCHES OF MERCURY
         F - FALLING PRESSURE   R - RISING PRESSURE
         S - STEADY PRESSURE
VSB    - VISIBILITY IN MILES
HX     - HEAT INDEX IN FAHRENHEIT
WCI    - WIND CHILL INDEX IN FAHRENHEIT
TC     - TEMPERATURE IN CELSIUS WHICH IS ALSO KNOWN AS
         TEMPERATURE IN CENTIGRADE
AFB    - AIR FORCE BASE
         LUKE AFB IS LUKE AIR FORCE BASE
         DAVIS-MONTHAN IS DAVIS-MONTHAN AIR FORCE BASE
NAS    - NAVAL AIR STATION
         EL CENTRO NAS IS EL CENTRO NAVAL AIR STATION
N/A    - NOT AVAILABLE


Return to Home page


Western Regional Climate Center, wrcc@dri.edu